"Pseudo-MPEC" for P11W7Ex

Created 2024 Jul 11 8:22:05 UT using Find_Orb

Click here for an explanation of pseudo-MPECs

 
 Astrometry: 
     P11W7Ex* C2024 07 03;;ghxuuAstrometry;mYxeredacted;AgtyEyq2DG11T:jT:_I($F51
     P11W7Ex  C2024 07 037SfuFyMeu;`t:_EL]m7click!XF;Ub#7@nqsZF?4t*/5D)O])U@vF51
     P11W7Ex  C2024 07 03mA.9\1mlMp]m/fxU_f)CuhYGKb#l8Jg=$10J8Z-+xpqPLVqUFNB%F51
     P11W7Ex 3C2024 07 04umAR93'4?_y)/8=pCogo9%qHY=P!worXb,[CtT(s87e/.c%OXYh7T14
     P11W7Ex 3C2024 07 04PjqGurD!AqY*#nMQ#0$;GjJ/S)^ebVlKM:F8!AherecZ%f)-q,=vT14
     P11W7Ex 3C2024 07 04!f%(sc@8KGnrLvfLvXMqBawbj^ZP!V+sv1UItv;ywcKI_7O5p-8cT14
     P11W7Ex !C2024 07 07^TTB4^wDjforJ@!iO^(yHT-EQC;-*-phb$dP=;u-e;bE_kGCsk'VJ04
     P11W7Ex !C2024 07 07SMaPBnZP?lw@B:[=!3cFLTGINo/X\tR%BfUaB!explanation9bwJ04
     P11W7Ex KC2024 07 08.40992 23 48 34.73 -10 26 29.3    ~78B7 21.3 RVNEOCP691
     P11W7Ex KC2024 07 08.41890 23 48 35.45 -10 26 24.1    ~78B7 21.3 RVNEOCP691
     P11W7Ex KC2024 07 08.42787 23 48 36.17 -10 26 18.9    ~78B7 21.1 RVNEOCP691
     P11W7Ex KC2024 07 09.40691 23 49 58.55 -10 16 02.2    ~79Ab 21.3 RVNEOCP691
     P11W7Ex KC2024 07 09.41105 23 49 58.90 -10 15 58.9    ~79Ab 20.9 RVNEOCP691
     P11W7Ex KC2024 07 09.41518 23 49 59.21 -10 15 56.2    ~79Ab 21.2 RVNEOCP691

Station data:
(691) Steward Observatory, Kitt Peak - Spacewatch  (N31.962174 W111.600327)
   US/Arizona.  Observer J. V. Scotti. 0.9-m f/3 reflector + CCD.
(F51) Pan-STARRS 1, Haleakala  (N20.707234 W156.255910)  US/Hawaii.
   Observers J. Bulger, T. Lowe, A. Schultz, M. Willman. Measurers K.
   Chambers, S. Chastel, T. de Boer, L. Denneau, J. Fairlamb, H. Flewelling,
   M. Huber, C.-C. Lin, E. Magnier, Y. Ramanjooloo, R. Wainscoat, R. Weryk.
   1.8-m Ritchey-Chrétien + CCD.
(J04) ESA Optical Ground Station, Tenerife  (N28.300921 W16.511830)  Canary
   Islands (Spain).  Observer R. Kresken. Measurers M. Micheli, D. Koschny,
   E. Schwab, M. Busch, A. Knöfel. 1.0-m f/4.4 reflector + CCD.
(T14) Mauna Kea-UH/Tholen NEO Follow-Up (CFHT)  (N19.825252 W155.468876)
   US/Hawaii.  Observer R. Weryk. 3.6-m Canada-France-Hawaii Telescope.

Orbital elements:  P11W7Ex
   Perihelion 2024 Sep 4.49942 +/- 5.4 TT = 11:59:09 (JD 2460557.99942)
Epoch 2024 Jul  9.0 TT = JDT 2460500.5   Earth MOID: 0.6012      AutoNEOCP
M 344.03338552 +/- 2.9              (J2000 ecliptic)
n   0.27768305 +/- 0.0249           Peri.  350.14978 +/- 3.5
a   2.32685754 +/- 0.139            Node   359.91683 +/- 0.8
e   0.3094367 +/- 0.031             Incl.    7.52667 +/- 0.024
P   3.55                   H 18.62  G  0.15   U 10.3
q 1.60684234 +/- 0.024    Q 3.04687273 +/- 0.254
From 14 observations 2024 July 3-9; mean residual 0".23
Residuals in arcseconds: 
240703 F51  .15-  .01-    240704 T14  .01+  .03+    240708 691  .35-  .41-    
240703 F51  .02+  .11-    240707 J04  .25-  .39-    240709 691  .06+  .40-    
240703 F51  .07+  .01-    240707 J04  .11+  .36-    240709 691  .29+  .31+    
240704 T14  .01+  .03+    240708 691  .11+  .44+    240709 691  .05-  .44+    
240704 T14  .00   .01-    240708 691  .14-  .02+    

Ephemerides (geocentric):
Date (UTC) HH   RA             Dec           delta  r     elong  mag " sig PA
---- --------  ------------   ------------  ------ ------ -----  --- --------
2024 07 11 08  23 52 36.383   -09 55 48.76  .95482 1.6590 114.6 21.0 .913 131
2024 07 11 09  23 52 39.747   -09 55 22.74  .95446 1.6589 114.6 21.0 .929 131
2024 07 11 10  23 52 43.108   -09 54 56.72  .95410 1.6589 114.6 21.0 .944 131
2024 07 11 11  23 52 46.467   -09 54 30.71  .95375 1.6588 114.6 21.0 .959 131
2024 07 11 12  23 52 49.823   -09 54 04.70  .95339 1.6587 114.7 21.0 .975 131
2024 07 11 13  23 52 53.177   -09 53 38.70  .95304 1.6586 114.7 21.0 0.99 131
2024 07 11 14  23 52 56.529   -09 53 12.70  .95268 1.6586 114.7 21.0 1.01 131
2024 07 11 15  23 52 59.878   -09 52 46.70  .95233 1.6585 114.7 21.0 1.02 131
2024 07 11 16  23 53 03.225   -09 52 20.71  .95197 1.6584 114.8 21.0 1.04 131
2024 07 11 17  23 53 06.569   -09 51 54.72  .95162 1.6583 114.8 21.0 1.06 131
2024 07 11 18  23 53 09.911   -09 51 28.74  .95126 1.6583 114.8 21.0 1.07 132
2024 07 11 19  23 53 13.250   -09 51 02.76  .95091 1.6582 114.8 21.0 1.09 132
2024 07 11 20  23 53 16.587   -09 50 36.78  .95055 1.6581 114.9 21.0 1.11 132
2024 07 11 21  23 53 19.921   -09 50 10.81  .95020 1.6580 114.9 21.0 1.12 132
2024 07 11 22  23 53 23.253   -09 49 44.84  .94984 1.6580 114.9 21.0 1.14 132
2024 07 11 23  23 53 26.582   -09 49 18.88  .94949 1.6579 114.9 21.0 1.16 132
2024 07 12 00  23 53 29.910   -09 48 52.92  .94913 1.6578 114.9 21.0 1.18 132
2024 07 12 01  23 53 33.234   -09 48 26.96  .94878 1.6577 115.0 21.0 1.19 132
2024 07 12 02  23 53 36.556   -09 48 01.01  .94842 1.6577 115.0 21.0 1.21 132
2024 07 12 03  23 53 39.876   -09 47 35.06  .94807 1.6576 115.0 21.0 1.23 132
2024 07 12 04  23 53 43.193   -09 47 09.12  .94772 1.6575 115.0 21.0 1.25 132
2024 07 12 05  23 53 46.508   -09 46 43.18  .94736 1.6574 115.1 21.0 1.27 132
2024 07 12 06  23 53 49.820   -09 46 17.24  .94701 1.6574 115.1 21.0 1.28 132
2024 07 12 07  23 53 53.130   -09 45 51.31  .94666 1.6573 115.1 21.0 1.30 132
2024 07 12 08  23 53 56.437   -09 45 25.38  .94630 1.6572 115.1 21.0 1.32 132
2024 07 12 09  23 53 59.742   -09 44 59.46  .94595 1.6571 115.2 21.0 1.34 132
2024 07 12 10  23 54 03.044   -09 44 33.54  .94560 1.6571 115.2 21.0 1.36 132
2024 07 12 11  23 54 06.344   -09 44 07.62  .94524 1.6570 115.2 21.0 1.38 132
2024 07 12 12  23 54 09.641   -09 43 41.71  .94489 1.6569 115.2 21.0 1.40 132
2024 07 12 13  23 54 12.936   -09 43 15.81  .94454 1.6568 115.3 21.0 1.42 132
2024 07 12 14  23 54 16.229   -09 42 49.90  .94418 1.6568 115.3 21.0 1.44 132
2024 07 12 15  23 54 19.519   -09 42 24.00  .94383 1.6567 115.3 21.0 1.46 132
2024 07 12 16  23 54 22.806   -09 41 58.11  .94348 1.6566 115.3 21.0 1.48 132
2024 07 12 17  23 54 26.091   -09 41 32.22  .94313 1.6565 115.4 21.0 1.50 132
2024 07 12 18  23 54 29.373   -09 41 06.33  .94278 1.6565 115.4 21.0 1.52 132
2024 07 12 19  23 54 32.653   -09 40 40.45  .94242 1.6564 115.4 21.0 1.54 132
2024 07 12 20  23 54 35.931   -09 40 14.57  .94207 1.6563 115.4 21.0 1.56 132
2024 07 12 21  23 54 39.206   -09 39 48.69  .94172 1.6562 115.5 21.0 1.58 132
2024 07 12 22  23 54 42.478   -09 39 22.82  .94137 1.6562 115.5 21.0 1.60 133
2024 07 12 23  23 54 45.748   -09 38 56.95  .94102 1.6561 115.5 21.0 1.62 133
2024 07 13 00  23 54 49.016   -09 38 31.09  .94067 1.6560 115.5 21.0 1.64 133
2024 07 13 01  23 54 52.281   -09 38 05.23  .94032 1.6559 115.6 21.0 1.66 133
2024 07 13 02  23 54 55.543   -09 37 39.38  .93996 1.6559 115.6 21.0 1.69 133
2024 07 13 03  23 54 58.803   -09 37 13.53  .93961 1.6558 115.6 21.0 1.71 133
2024 07 13 04  23 55 02.060   -09 36 47.68  .93926 1.6557 115.6 21.0 1.73 133
2024 07 13 05  23 55 05.315   -09 36 21.84  .93891 1.6556 115.6 21.0 1.75 133
2024 07 13 06  23 55 08.568   -09 35 56.00  .93856 1.6556 115.7 21.0 1.77 133
2024 07 13 07  23 55 11.817   -09 35 30.17  .93821 1.6555 115.7 21.0 1.80 133